Regional Weather Roundup
Issued by NWS Portland, ME

Current Version | Previous Version | Text Only | Print | Product List | Glossary On
Versions: 1 2 3 4 5 6 7 8 9 10 11 12 13 14 15 16 17 18 19 20 21 22 23 24 25 26 27 28 29 30 31 32 33 34 35 36 37 38 39 40 41 42 43 44 45 46 47 48 49 50
000
ASUS41 KGYX 081410
RWRGYX
WEATHER ROUNDUP FOR MAINE AND NEW HAMPSHIRE
NATIONAL WEATHER SERVICE GRAY ME
900 AM EST MON FEB 08 2016

MEZ002-005-006-010-012-015-018-020-021-024-026-027-029-081500-
MAINE

CITY           SKY/WX    TMP DP  RH WIND       PRES   REMARKS
PORTLAND       CLOUDY    16   1  51 N16G26    29.98F WCI   1
SANFORD        CLOUDY    16   0  48 N24G33    29.94F WCI  -3
BAR HARBOR     CLOUDY    14   9  79 N24G31    29.98F WCI  -5
WISCASSET      CLOUDY    16   0  49 MISG      30.00F
ROCKLAND       CLOUDY    17   9  70 NE18G33   29.97F WCI   1
FRYEBURG       CLOUDY    19  -7  31 N12G20    30.00F WCI   7
LEWISTONAUBURN CLOUDY    14  -4  44 N21G29    29.99F WCI  -4
AUGUSTA        CLOUDY    11  -1  58 N14G26    30.02F WCI  -5
WATERVILLE     CLOUDY    12   1  61 NE16G26   30.01F WCI  -5
BANGOR         CLOUDY    11   2  67 N16       30.07F WCI  -6
GREENVILLE       N/A     10  -3  55 SE7       30.00R
MILLINOCKET    MOSUNNY   11  -1  58 NE9G17    30.14S
HOULTON        CLOUDY     5  -2  72 N7        30.12F
PRESQUE ISLE   CLOUDY     6  -2  69 N8        30.18F
FRENCHVILLE    FLURRIES   2  -4  76 N9        30.15F
CARIBOU        CLOUDY     5  -3  69 N12       30.16F WCI -11
$$

NHZ002-005-008-009-011-012-014-081500-
NEW HAMPSHIRE

CITY           SKY/WX    TMP DP  RH WIND       PRES   REMARKS
PORTSMOUTH     CLOUDY    18  -1  42 N17G24    29.92F WCI   3
ROCHESTER      CLOUDY    18  -3  39 N15G28    29.93F WCI   4
NASHUA         CLOUDY    21   0  39 N10       29.93F WCI  10
MANCHESTER     CLOUDY    21  -3  35 N16G22    29.93S WCI   7
CONCORD        CLOUDY    20  -6  31 NE14      29.94F WCI   7
LACONIA        CLOUDY    19  -6  32 NE13G25   29.96S WCI   7
PLYMOUTH       FAIR      24 -15  17 SE5       29.94F
BERLIN         CLOUDY    20 -11  25 E7        29.97S
WHITEFIELD     PTSUNNY   20 -12  24 E16G25    29.92S WCI   6
JAFFREY        CLOUDY    19  -6  33 N8        29.87S
KEENE          CLOUDY    23  -6  28 N7        29.91R
LEBANON        CLOUDY    25  -4  28 NE8       29.92S
MT WASHINGTON  CLOUDY     7 -20  28 E46G54      N/A  WCI -21
$$

VTZ005-007-008-081500-
VERMONT

CITY           SKY/WX    TMP DP  RH WIND       PRES   REMARKS
ST JOHNSBURY     N/A     22   1  40 MISG      29.94S
MONTPELIER     FAIR      22  13  68 NE6       29.93S
BURLINGTON     PTSUNNY   21  13  71 N7        29.94S
$$

MAZ007-012-024-CTZ003-RIZ002-NYZ038-NYZ072-081500-
SOUTHERN NEW ENGLAND AND NY

CITY           SKY/WX    TMP DP  RH WIND       PRES   REMARKS
BOSTON         LGT SNOW  25  19  80 N32G40    29.86S WCI   7
WORCESTER      CLOUDY    18   3  52 NE14G26   29.80F WCI   4
NANTUCKET      SNOW      34  33  96 NE36G47   29.63S VSB 1/2 WCI  19
PROVIDENCE     SNOW      27  24  89 N22G32    29.79S VSB 1/4 WCI  13
HARTFORD       CLOUDY    26   8  46 N20       29.85F WCI  12
ALBANY         CLOUDY    30  20  66 N7        29.90R
NEW YORK CITY  CLOUDY    37  26  64 NE21G29   29.78F
$$

ANZ081-ANZ082-ANZ150-NHZ014-MEZ023>029-081500-
COASTAL MARINE OBSERVATIONS

STATION/POSITION TIME  TEMP    WIND        PRES    WAVE
                       AIR SEA DIR/SP/G            HT/PER
                 (UTC) (F)     (DEG/KT/KT) (MB)    (FT/S)
MOUNT DESERT ROC 1400   29      30/ 39/ 43 1011.7F
MATINICUS ROCK   1400           20/ 33/ 40 1011.8F
ISLE OF SHOALS   1400   21      20/ 33/ 38 1011.3S
JEFFREYS LEDGE   1304      44                N/A    14/ 9
CASHES LEDGE BUO 1350   32 43   40/ 31/ 39 1008.6F  16/ 9
GEORGES BANK BUO 1350   44 47               992.6F  19/11
$$

.............KEY..............
   WCI - WIND CHILL
   TC  - TEMPERATURE IN CELSIUS
   VSB - VISIBILITY IN MILES
   HX  - HEAT INDEX
   FAIR- INDICATES FEW OR NO CLOUDS BELOW 12,000 FT, WITH NO
         SIGNIFICANT WEATHER AND/OR OBSTRUCTIONS TO VISIBILITY.





USA.gov is the U.S. government's official web portal to all federal, state and local government web resources and services.